Date String (YYYY-MM-DD hh:mm:ss) UTC,Instrument flags,Ambient pressure (hPa),Sample flow (lpm),Bypass flow (lpm),Sample temperature (°C),Ambient temperature (°C),ASC tube jacket temperature (°C),LED temperature (°C),Box temperature (°C),Sample RH (%),Span deviation,Mass concentration (μg/m³),Mass concentration (μg/m³),Mass concentration (μg/m³)
DateTimeUTC,F1_M11,P_M11,Q1_M11,Q2_M11,T1_M11,T2_M11,T3_M11,T4_M11,T5_M11,U1_M11,ZSPAN_M11,X0_M11,X2_M11,X1_M11
2023-02-06 16:00:00,,0817.6,5.03,0.00,21.7,21.0,00.0,30.6,23.4,07.7,0000.0,0000.84,0000.43,0000.30
2023-02-06 16:01:00,,0817.6,4.98,0.00,21.7,20.8,00.0,30.6,23.4,07.7,0000.0,0000.87,0000.44,0000.29
2023-02-06 16:02:00,,0817.5,4.97,0.00,21.7,20.5,00.0,30.6,23.3,07.6,0000.0,0000.98,0000.44,0000.30
2023-02-06 16:03:00,,0817.6,5.03,0.00,21.7,20.3,00.0,30.6,23.3,07.8,0000.0,0002.22,0000.44,0000.30
2023-02-06 16:04:00,,0817.6,4.99,0.00,21.7,20.4,00.0,30.6,23.3,07.6,0000.0,0002.26,0000.46,0000.31
2023-02-06 16:05:00,,0817.6,5.01,0.00,21.7,20.4,00.0,30.6,23.4,07.7,0000.0,0002.29,0000.47,0000.31
2023-02-06 16:06:00,,0817.6,4.98,0.00,21.7,20.5,00.0,30.6,23.4,07.8,0000.0,0002.25,0000.46,0000.30
2023-02-06 16:07:00,,0817.5,5.01,0.00,21.7,20.5,00.0,30.6,23.4,07.6,0000.0,0002.15,0000.43,0000.30
2023-02-06 16:08:00,,0817.6,5.08,0.00,21.7,20.5,00.0,30.6,23.4,07.3,0000.0,0002.23,0000.41,0000.30
2023-02-06 16:09:00,,0817.6,4.98,0.00,21.7,20.4,00.0,30.6,23.4,07.5,0000.0,0002.21,0000.40,0000.30
2023-02-06 16:10:00,,0817.6,4.97,0.00,21.7,20.4,00.0,30.6,23.4,07.4,0000.0,0002.16,0000.38,0000.30
2023-02-06 16:11:00,,0817.6,4.99,0.00,21.7,20.4,00.0,30.6,23.4,06.9,0000.0,0002.08,0000.38,0000.30
2023-02-06 16:12:00,,0817.6,5.08,0.00,21.7,20.4,00.0,30.6,23.4,06.8,0000.0,0002.02,0000.36,0000.29
2023-02-06 16:13:00,,0817.6,4.99,0.00,21.8,20.5,00.0,30.6,23.5,06.9,0000.0,0001.75,0000.34,0000.29
2023-02-06 16:14:00,,0817.7,4.98,0.00,21.8,20.5,00.0,30.6,23.5,06.8,0000.0,0000.63,0000.33,0000.28
2023-02-06 16:15:00,,0817.6,5.02,0.00,21.8,20.5,00.0,30.6,23.5,06.8,0000.0,0000.59,0000.31,0000.27
2023-02-06 16:16:00,,0817.6,5.03,0.00,21.8,20.6,00.0,30.6,23.5,06.8,0000.0,0000.56,0000.31,0000.27
2023-02-06 16:17:00,,0817.6,4.95,0.00,21.8,20.6,00.0,30.6,23.6,07.2,0000.0,0000.56,0000.30,0000.27
2023-02-06 16:18:00,,0817.6,5.04,0.00,21.8,20.6,00.0,30.6,23.6,07.4,0000.0,0000.53,0000.30,0000.27
2023-02-06 16:19:00,,0817.6,5.02,0.00,21.8,20.7,00.0,30.6,23.6,07.0,0000.0,0000.40,0000.29,0000.27
2023-02-06 16:20:00,,0817.7,4.96,0.00,21.8,20.6,00.0,30.6,23.5,06.9,0000.0,0000.40,0000.29,0000.26
2023-02-06 16:21:00,,0817.7,5.07,0.00,21.8,20.6,00.0,30.6,23.5,06.5,0000.0,0000.40,0000.29,0000.26
2023-02-06 16:22:00,,0817.7,4.98,0.00,21.8,20.6,00.0,30.6,23.4,06.5,0000.0,0000.35,0000.27,0000.25
2023-02-06 16:23:00,,0817.7,4.97,0.00,21.8,20.6,00.0,30.6,23.5,06.8,0000.0,0000.37,0000.28,0000.25
2023-02-06 16:24:00,,0817.8,4.98,0.00,21.8,20.6,00.0,30.7,23.5,07.4,0000.0,0000.39,0000.28,0000.25
2023-02-06 16:25:00,,0817.8,5.02,0.00,21.8,20.6,00.0,30.7,23.5,07.2,0000.0,0000.40,0000.29,0000.26
2023-02-06 16:26:00,,0817.9,5.01,0.00,21.9,20.6,00.0,30.7,23.5,07.2,0000.0,0000.43,0000.30,0000.25
2023-02-06 16:27:00,,0817.9,4.98,0.00,21.9,20.6,00.0,30.7,23.5,06.8,0000.0,0000.43,0000.29,0000.25
2023-02-06 16:28:00,,0817.9,5.02,0.00,21.9,20.6,00.0,30.7,23.6,07.0,0000.0,0000.44,0000.29,0000.25
2023-02-06 16:29:00,,0817.9,4.99,0.00,21.9,20.6,00.0,30.7,23.6,07.2,0000.0,0000.49,0000.31,0000.25
2023-02-06 16:30:00,,0817.9,5.06,0.00,21.9,20.6,00.0,30.7,23.5,07.0,0000.0,0000.50,0000.31,0000.25
2023-02-06 16:31:00,,0817.8,4.96,0.00,21.9,20.6,00.0,30.7,23.5,06.7,0000.0,0000.62,0000.32,0000.25
2023-02-06 16:32:00,,0817.8,4.97,0.00,21.8,20.5,00.0,30.7,23.5,06.8,0000.0,0000.63,0000.33,0000.25
2023-02-06 16:33:00,,0817.8,5.02,0.00,21.8,20.5,00.0,30.7,23.5,06.9,0000.0,0000.65,0000.34,0000.26
2023-02-06 16:34:00,,0817.8,4.99,0.00,21.8,20.5,00.0,30.7,23.4,06.6,0000.0,0000.65,0000.34,0000.26
2023-02-06 16:35:00,,0817.7,5.00,0.00,21.8,20.6,00.0,30.7,23.5,07.1,0000.0,0000.67,0000.36,0000.26
2023-02-06 16:36:00,,0818.0,5.04,0.00,21.9,21.9,00.0,30.7,23.9,06.5,0000.0,0000.69,0000.38,0000.26
2023-02-06 16:37:00,,0818.0,4.96,0.00,22.1,23.2,00.0,30.7,24.2,06.0,0000.0,0000.70,0000.39,0000.26
2023-02-06 16:38:00,,0818.0,5.03,0.00,22.2,23.0,00.0,30.8,24.3,06.3,0000.0,0000.72,0000.39,0000.26
2023-02-06 16:39:00,,0818.0,4.97,0.00,22.2,22.5,00.0,30.8,24.2,06.9,0000.0,0000.72,0000.39,0000.27
2023-02-06 16:40:00,,0818.0,5.05,0.00,22.3,22.1,00.0,30.9,24.2,06.6,0000.0,0000.78,0000.42,0000.27
2023-02-06 16:41:00,,0818.0,4.99,0.00,22.3,21.8,00.0,30.9,24.1,07.0,0000.0,0000.75,0000.41,0000.27
2023-02-06 16:42:00,,0818.2,4.97,0.00,22.3,21.6,00.0,30.9,24.1,06.8,0000.0,0000.64,0000.41,0000.28
2023-02-06 16:43:00,,0818.2,4.96,0.00,22.3,21.5,00.0,31.0,24.1,06.9,0000.0,0000.64,0000.41,0000.29
2023-02-06 16:44:00,,0818.2,4.98,0.00,22.3,21.4,00.0,31.0,24.1,07.0,0000.0,0000.62,0000.40,0000.28
2023-02-06 16:45:00,,0818.2,5.04,0.00,22.3,21.3,00.0,31.0,24.1,06.9,0000.0,0000.63,0000.41,0000.29
2023-02-06 16:46:00,,0818.4,4.95,0.00,22.3,21.2,00.0,31.0,24.1,08.7,0000.0,0001.74,0000.72,0000.58
2023-02-06 16:47:00,,0818.4,5.04,0.00,22.3,21.1,00.0,31.0,24.1,09.6,0000.0,0003.20,0001.58,0001.37
2023-02-06 16:48:00,,0818.4,5.05,0.00,22.3,21.1,00.0,31.0,24.1,09.1,0000.0,0004.84,0002.25,0002.01
2023-02-06 16:49:00,,0818.5,4.94,0.00,22.3,21.0,00.0,31.1,24.1,09.9,0000.0,0005.84,0003.05,0002.77
2023-02-06 16:50:00,,0818.5,5.07,0.00,22.3,21.1,00.0,31.1,24.1,10.2,0000.0,0006.87,0003.59,0003.38
2023-02-06 16:51:00,,0818.5,4.98,0.00,22.3,21.1,00.0,31.1,24.1,09.6,0000.0,0007.56,0004.00,0003.78
2023-02-06 16:52:00,,0818.4,5.03,0.00,22.3,21.1,00.0,31.1,24.1,08.8,0000.0,0007.99,0004.32,0004.06
2023-02-06 16:53:00,,0818.5,4.98,0.00,22.3,21.1,00.0,31.1,24.1,08.3,0000.0,0008.14,0004.45,0004.20
2023-02-06 16:54:00,,0818.4,5.02,0.00,22.3,21.1,00.0,31.1,24.1,08.1,0000.0,0008.38,0004.60,0004.33
2023-02-06 16:55:00,,0818.3,4.97,0.00,22.3,21.1,00.0,31.1,24.1,07.9,0000.0,0008.51,0004.67,0004.40
2023-02-06 16:56:00,,0818.4,5.01,0.00,22.3,21.1,00.0,31.1,24.1,08.1,0000.0,0008.67,0004.78,0004.50
2023-02-06 16:57:00,,0818.4,5.02,0.00,22.3,21.1,00.0,31.1,24.1,08.8,0000.0,0008.48,0004.87,0004.59
2023-02-06 16:58:00,,0818.4,4.98,0.00,22.3,21.0,00.0,31.1,24.1,09.4,0000.0,0008.14,0004.79,0004.49
2023-02-06 16:59:00,,0818.4,5.02,0.00,22.3,21.1,00.0,31.1,24.1,09.6,0000.0,0007.74,0004.79,0004.48
